ROMMA est une association bénévole à but non lucratif. Votre soutien est indispensable : ADHERER à ROMMA ou FAIRE un DON

Saint-Martin-d'Hères - (38, Isère)

Vallée du Grésivaudan (220 m)   Longitude: 05° 45' 05" E   Latitude: 45° 10' 02" N Station partenaire n°4
 

Détail journalier du     <<     >>

Température Precipitation Humidité Pression Vent Dir Rafale Dir. rafale Ensol.
Heure (°C) (mm) (%) (hPa) (km/h) (km/h) (min)
01:00 3.11.294994011SSO0
02:00 3.10.895997010SSO0
03:00 3.00.49599800---0
04:00 2.809599905SSE0
05:00 3.1095100002SSE0
06:00 3.4095100108SE0
07:00 3.8095100200---0
08:00 4.60.29310031SSE15SSO0
09:00 5.109310041SSO16SSO0
10:00 5.809310051NNO6N0
11:00 7.608210071SSE11SE0
12:00 9.407410075SSO21SSE0
13:00 12.805610083NNO23SSE50
14:00 13.404710076S31S0
15:00 13.7047100810SSO32SSO40
16:00 12.3054100810SSO27S30
17:00 11.206210082S27SSE30
18:00 9.207310081SE18SSO0
19:00 7.70791009015SE0
20:00 7.507810101---11NNO0
21:00 7.007810113N21N0
22:00 7.407910113N16NNO0
23:00 7.108010118NNO19N0
minuit 7.208010115NNO23N0

Graphique du 30-10-2018

 

Serveur OMMA